TimeEDT,TemperatureF,Dew PointF,Humidity,Sea Level PressureIn,VisibilityMPH,Wind Direction,Wind SpeedMPH,Gust SpeedMPH,PrecipitationIn,Events,Conditions,WindDirDegrees,DateUTC
12:52 AM,33.1,16.0,50,30.34,10.0,West,6.9,-,N/A,,Scattered Clouds,270,2013-04-21 04:52:00
1:52 AM,32.0,15.1,50,30.35,10.0,West,10.4,-,N/A,,Clear,270,2013-04-21 05:52:00
2:52 AM,32.0,16.0,52,30.36,10.0,West,15.0,-,N/A,,Clear,260,2013-04-21 06:52:00
3:52 AM,30.9,16.0,54,30.38,10.0,West,16.1,-,N/A,,Clear,270,2013-04-21 07:52:00
4:52 AM,30.0,15.1,54,30.42,10.0,West,8.1,-,N/A,,Clear,270,2013-04-21 08:52:00
5:52 AM,30.0,14.0,51,30.45,10.0,West,9.2,-,N/A,,Clear,260,2013-04-21 09:52:00
6:52 AM,30.0,14.0,51,30.50,10.0,West,5.8,-,N/A,,Clear,270,2013-04-21 10:52:00
7:52 AM,32.0,14.0,48,30.54,10.0,Variable,4.6,-,N/A,,Clear,0,2013-04-21 11:52:00
8:52 AM,33.1,14.0,46,30.57,10.0,Variable,5.8,16.1,N/A,,Clear,0,2013-04-21 12:52:00
10:52 AM,37.9,15.1,39,30.59,10.0,NW,8.1,-,N/A,,Clear,310,2013-04-21 14:52:00
11:52 AM,39.9,15.1,36,30.60,10.0,Variable,5.8,-,N/A,,Clear,0,2013-04-21 15:52:00
12:52 PM,42.1,15.1,34,30.59,10.0,West,10.4,18.4,N/A,,Clear,280,2013-04-21 16:52:00
1:52 PM,44.1,15.1,31,30.58,10.0,West,10.4,-,N/A,,Clear,270,2013-04-21 17:52:00
2:52 PM,46.9,16.0,29,30.58,10.0,West,8.1,-,N/A,,Clear,270,2013-04-21 18:52:00
3:52 PM,48.0,14.0,26,30.56,10.0,WNW,8.1,-,N/A,,Clear,300,2013-04-21 19:52:00
4:52 PM,48.9,10.9,22,30.56,10.0,WNW,8.1,-,N/A,,Clear,300,2013-04-21 20:52:00
5:52 PM,48.9,10.9,22,30.57,10.0,WNW,6.9,-,N/A,,Clear,290,2013-04-21 21:52:00
6:52 PM,46.9,10.0,22,30.58,10.0,West,4.6,-,N/A,,Clear,280,2013-04-21 22:52:00
7:52 PM,42.1,16.0,35,30.62,10.0,SW,3.5,-,N/A,,Clear,230,2013-04-21 23:52:00
8:52 PM,35.1,21.9,59,30.65,10.0,Calm,Calm,-,N/A,,Clear,0,2013-04-22 00:52:00
9:52 PM,32.0,21.0,64,30.67,10.0,Calm,Calm,-,N/A,,Clear,0,2013-04-22 01:52:00
10:52 PM,30.0,21.0,69,30.68,10.0,Calm,Calm,-,N/A,,Clear,0,2013-04-22 02:52:00
11:52 PM,28.0,21.0,75,30.68,10.0,Calm,Calm,-,N/A,,Clear,0,2013-04-22 03:52:00